Location: Unspecified
(0.0000°N, 0.0000°E)
Time: 06:35:27
(UTC+02:00)

Ariane H10 - Visible Passes

Search period start: 19 June 2018 00:00
Search period end: 29 June 2018 00:00
Orbit: 453 x 34789 km, 7.6° (Epoch: 17 June)

Date Brightness Start Highest point End Pass type
(mag) Time Alt. Az. Time Alt. Az. Time Alt. Az.
19 Jun 10.3 03:26:58 10° W 04:37:05 19° W 06:41:57 10° W visible
19 Jun 8.9 23:07:22 10° W 00:49:56 77° WSW 08:47:22 10° E visible
20 Jun 7.4 19:26:56 10° WNW 19:38:07 80° NNE 05:05:46 10° E visible
21 Jun 10.4 22:10:45 10° E 23:35:45 15° E 00:31:53 10° E visible
22 Jun 10.3 03:26:57 10° W 04:34:04 18° W 06:29:19 10° W visible
22 Jun 8.9 23:04:30 10° W 00:47:43 76° WSW 08:44:17 10° E visible
23 Jun 7.5 19:23:49 10° WNW 19:35:19 81° NNE 05:02:55 10° E visible
24 Jun 10.4 21:57:10 10° E 23:32:35 16° E 00:33:01 10° E visible
25 Jun 10.4 03:27:11 10° W 04:30:59 17° W 06:16:29 10° W visible
25 Jun 9.0 23:01:34 10° W 00:45:23 75° WSW 08:41:08 10° E visible
26 Jun 7.6 19:20:40 10° WNW 19:32:28 82° N 04:59:59 10° E visible
27 Jun 10.3 21:44:09 10° E 23:29:22 17° E 00:33:29 10° E visible
28 Jun 10.4 03:27:42 10° W 04:27:49 16° W 06:03:23 10° W visible
